THOR AGENA D R/B, 733

Orbit data source: Space-Track

THOR AGENA D R/B, 733 is space debris in SSO originally from a launch on Sun, 19 Jan 1964 UTC launched from the Air Force Western Test Range (AFWTR). Debris objects in space refer to the collection of defunct objects orbiting the Earth. Examples of debris include non-operational satellites, rocket bodies, and fragments generated from explosions, collisions, or faulty payload assembly.

Loading next visibility...
Identifier
733, 1964-002A
Orbit
SSO
Country
Flag of USUS
Related business
Manufacturer
LMSC
Mission
Spacecraft
Bus & Motor
AGENA D, Unknown motor
Mass
600 kg wet, 600 kg dry
Launch date (UTC)
1964-01-19 (62 years ago)
Launch vehicle
Unknown
Launch site
Air Force Western Test Range (AFWTR)
Object type
Payload
Rocket body
Debris
Shape & HBR
Unknown
Radar Cross Section
Large (>1 m²)

Expand to show TLE details & history
Last TLE update: 7 hours ago

TLE from 7 hours ago
0 THOR AGENA D R/B
1 00733U 64002A   25303.25106372  .00000405  00000-0  16206-3 0  9991
2 00733  99.1225 304.5158 0031936 278.6381  81.1184 14.33921344219601
Epoch: 2025-10-30T06:01Z
TLE epoch observation values (Epoch: 2025-10-30T06:01:31.905Z)
Latitude
-0.00004°
Longitude
175.32034°
Altitude
778.115 km
Speed
7.467 km/s
True Right ascension
20h 18m 03s
True Declination
0° 00' 00"
Sunlit
Object was in daylight at epoch
Visualization orbit readout
Latitude
Unknown
Longitude
Unknown
Altitude
Unknown
Speed
Unknown
Apparent Right ascension
Unknown
Apparent Declination
Unknown
Sunlit
N/A
Visualization observer readout
Local Sidereal Time
08:17:13
Azimuth
Unknown
Elevation
Unknown
Doppler factor
Unknown
Orbital elements
Apogee altitude
798.66 km
Perigee altitude
752.967 km
Semi-major axis
7,153.951 km
Eccentricity
0.00319
Inclination
99.1225°
RAAN
304.5158°
Arg. of periapsis
278.6381°
True anomaly
81.48019°
Mean anomaly
81.1184°
Eccentric anomaly
81.29927°
Mean motion
3.58694 °/min
Orbital period
100.36 mins
BSTAR
0.00016206
Loading maneuver chart data...
Computing Atmospheric mass density...
Loading historical data...
Loading historical data...
Loading historical data...
Loading historical data...
Loading historical data...
Loading historical data...
Loading historical data...
Other satellites on launch #2 in the year 1964 (1964-01-19 UTC)

Documentation

Showing up to 5 results
|